Weather History for KFRG - November, 2013

Change the Weather History Date:

Thursday, November 28, 2013

  Actual Average Record
Temperature  
Mean Temperature 31 °F -  
Max Temperature 34 °F 47 °F 64 °F (2011)
Min Temperature 28 °F 34 °F 21 °F (2002)
Degree Days  
Heating Degree Days 34    
Moisture  
Dew Point 12 °F    
Average Humidity 45    
Maximum Humidity 52    
Minimum Humidity 35    
Precipitation  
Precipitation 0.00 in - - ()
Sea Level Pressure  
Sea Level Pressure 30.21 in    
Wind  
Wind Speed 12 mph (NW)    
Max Wind Speed 22 mph    
Max Gust Speed 34 mph    
Visibility 10 miles    
Events      
Averages and records for this station are not official NWS values.
T = Trace of Precipitation, MM = Missing Value Source: NWS Daily Summary

Daily Weather History Graph

Daily Weather History Graph

Search for Another Location

Airport or City:

Trip Planner

Search our weather history database for the weather conditions in past years. The results will help you decide how hot, cold, wet, or windy it might be!

Date:

Astronomy

Nov. 28, 2013 Rise Set
Actual Time 6:55 AM EST 4:27 PM EST
Civil Twilight 6:25 AM EST 4:57 PM EST
Nautical Twilight 5:51 AM EST 5:31 PM EST
Astronomical Twilight 5:18 AM EST 6:04 PM EST
Moon 1:53 AM EST (11/28) 1:37 PM EST (11/28)
Length of Visible Light 10h 32m
Length of Day
9h 32m
Waning Crescent, 22% of the Moon is Illuminated
Nov 28
Waning Crescent
Dec 2
New
Dec 9
First Quarter
Dec 17
Full
Dec 25
Last Quarter

Hourly Weather History & Observations

Time (EST) Temp. Windchill Dew Point Humidity Pressure Visibility Wind Dir Wind Speed Gust Speed Precip Events Conditions
12:53 AM 33.1 °F 22.6 °F 16.0 °F 50% 29.76 in 10.0 mi NW 16.1 mph 34.5 mph N/A   Clear
1:53 AM 32.0 °F 21.2 °F 16.0 °F 52% 29.80 in 10.0 mi WNW 16.1 mph 26.5 mph N/A   Clear
2:53 AM 30.9 °F 20.7 °F 14.0 °F 50% 29.85 in 10.0 mi WNW 13.8 mph 29.9 mph N/A   Clear
3:53 AM 30.9 °F 20.2 °F 15.1 °F 52% 29.91 in 10.0 mi WNW 15.0 mph 32.2 mph N/A   Clear
4:53 AM 30.9 °F 21.2 °F 15.1 °F 52% 29.96 in 10.0 mi WNW 12.7 mph 31.1 mph N/A   Partly Cloudy
5:53 AM 30.0 °F 18.7 °F 14.0 °F 51% 30.03 in 10.0 mi WNW 16.1 mph 28.8 mph N/A   Partly Cloudy
6:53 AM 30.0 °F 19.5 °F 14.0 °F 51% 30.09 in 10.0 mi WNW 13.8 mph 26.5 mph N/A   Clear
7:53 AM 30.0 °F 18.3 °F 14.0 °F 51% 30.12 in 10.0 mi WNW 17.3 mph 26.5 mph N/A   Clear
8:53 AM 30.9 °F 20.7 °F 12.9 °F 47% 30.18 in 10.0 mi WNW 13.8 mph 21.9 mph N/A   Clear
9:53 AM 30.9 °F 18.1 °F 10.0 °F 42% 30.22 in 10.0 mi WNW 21.9 mph 28.8 mph N/A   Clear
10:53 AM 32.0 °F 22.1 °F 10.9 °F 42% 30.21 in 10.0 mi NW 13.8 mph 26.5 mph N/A   Clear
11:53 AM 32.0 °F 20.8 °F 10.9 °F 42% 30.22 in 10.0 mi WNW 17.3 mph 29.9 mph N/A   Clear
12:53 PM 34.0 °F 24.6 °F 10.9 °F 38% 30.25 in 10.0 mi WNW 13.8 mph 23.0 mph N/A   Clear
1:53 PM 34.0 °F 26.0 °F 10.0 °F 37% 30.26 in 10.0 mi NW 10.4 mph 24.2 mph N/A   Clear
2:53 PM 34.0 °F 26.0 °F 9.0 °F 35% 30.29 in 10.0 mi WNW 10.4 mph 18.4 mph N/A   Clear
3:53 PM 33.1 °F 24.9 °F 9.0 °F 37% 30.32 in 10.0 mi NW 10.4 mph - N/A   Clear
4:53 PM 32.0 °F 27.5 °F 8.1 °F 37% 30.35 in 10.0 mi NNW 4.6 mph - N/A   Clear
5:53 PM 30.9 °F - 10.0 °F 42% 30.40 in 10.0 mi Calm Calm - N/A   Clear
6:53 PM 30.0 °F 26.5 °F 10.0 °F 43% 30.43 in 10.0 mi NNW 3.5 mph - N/A   Clear
7:53 PM 28.9 °F - 10.0 °F 45% 30.45 in 10.0 mi Calm Calm - N/A   Clear
8:53 PM 28.9 °F 25.2 °F 10.9 °F 47% 30.45 in 10.0 mi NNW 3.5 mph - N/A   Partly Cloudy
9:53 PM 28.9 °F - 12.0 °F 49% 30.47 in 10.0 mi Calm Calm - N/A   Overcast
10:53 PM 30.0 °F - 10.9 °F 45% 30.48 in 10.0 mi Calm Calm - N/A   Overcast
11:53 PM 30.0 °F - 14.0 °F 51% 30.48 in 10.0 mi Calm Calm - N/A   Overcast